Regional Weather Roundup
Issued by NWS

Home | Current Version | Previous Version | Text Only | Print | Product List | Glossary Off
Versions: 1 2 3 4 5 6 7 8 9 10 11 12 13 14 15 16 17 18 19 20 21 22 23 24 25 26 27 28 29 30 31 32 33 34 35 36 37 38 39 40 41 42 43 44 45 46 47 48 49 50

000
ASUS43 KLSX 020959
RWRMO

WEATHER SUMMARY FOR MISSOURI
NATIONAL WEATHER SERVICE SPRINGFIELD MO
400 AM CST MON MAR 02 2015

NOTE: "FAIR" INDICATES FEW OR NO CLOUDS BELOW 12,000 FEET WITH NO
       SIGNIFICANT WEATHER AND/OR OBSTRUCTIONS TO VISIBILITY.
       CURRENT SKY AND/OR WEATHER CONDITIONS ARE NOT AVAILABLE FOR
       CHILLICOTHE AND FARMINGTON.

MOZ001>031-035>038-043-044-053-054-021100-
...NORTHERN AND WESTERN MISSOURI...

CITY           SKY/WX    TMP DP  RH WIND       PRES   REMARKS
KANSAS CTY INT PTCLDY    24  19  81 NW3       30.48F
KANSAS C DTWN  CLEAR     22  18  85 CALM      30.50F
LEE`S SUMMIT   PTCLDY    23  19  85 CALM      30.48F
ST JOSEPH      CLOUDY    25  23  92 SE3       30.49F
CHILLICOTHE      N/A     20  16  84 CALM      30.51F
KIRKSVILLE     CLOUDY    19  17  92 W3        30.49S

$$
MOZ066>068-077>081-088>096-101>105-021100-
...SOUTHWEST MISSOURI...

CITY           SKY/WX    TMP DP  RH WIND       PRES   REMARKS
SPRINGFIELD    PTCLDY    22  17  81 NE8       30.45F WCI  12
JOPLIN         PTCLDY    21  18  88 NE6       30.47F FOG     WCI  13

$$
MOZ032>034-039>042-045>050-055>058-069>072-021100-
...CENTRAL MISSOURI...

CITY           SKY/WX    TMP DP  RH WIND       PRES   REMARKS
COLUMBIA       MOCLDY    18  17  96 NW5       30.49S FOG     WCI  11
JEFFERSON CITY CLOUDY    12   9  87 CALM      30.53R FOG
ROLLA          PTCLDY    15  13  91 CALM      30.46F FOG
SEDALIA        PTCLDY    16  13  88 SW5       30.51R FOG     WCI   9
WHITEMAN AFB   PTCLDY     7   3  85 S3        30.50R
OSAGE BEACH    PTCLDY    12   9  85 CALM      30.49S

$$
MOZ051-052-059>065-021100-
...EAST CENTRAL MISSOURI...

CITY           SKY/WX    TMP DP  RH WIND       PRES   REMARKS
ST LOUIS INTL  PTCLDY    18  14  84 CALM      30.51S
SPIRIT OF STL  PTCLDY     8   4  83 CALM      30.51F
ST CHARLES     FOG        7   6  96 CALM      30.52S VSB 1/4

$$
MOZ072>076-082>087-097>100-106>115-021100-
...SOUTH CENTRAL AND SOUTHEAST MISSOURI...

CITY           SKY/WX    TMP DP  RH WIND       PRES   REMARKS
CAPE GIRARDEAU PTCLDY    28  23  81 N8        30.52R WCI  20
FARMINGTON     PTCLDY    23  19  86 N3        30.52R
POPLAR BLUFF   CLOUDY    30  21  69 N12       30.49R WCI  20
WEST PLAINS    PTCLDY    24  20  84 NE7       30.46S WCI  16

$$


USA.gov is the U.S. government's official web portal to all federal, state and local government web resources and services.